Location: Fiddletown
(38.4917°N, 120.6633°W)
Time: 18:30:36
(UTC-07:00)

Envisat - Visible Passes

Search period start: 23 August 2016 00:00
Search period end: 02 September 2016 00:00
Orbit: 764 x 766 km, 98.3° (Epoch: 23 August)

Date Brightness Start Highest point End Pass type
(mag) Time Alt. Az. Time Alt. Az. Time Alt. Az.
23 Aug 2.9 21:28:27 32° SSE 21:30:53 79° ENE 21:35:59 10° N visible
23 Aug 5.7 23:09:29 10° W 23:10:26 10° W 23:11:25 10° WNW visible
24 Aug 3.7 20:51:27 19° ESE 20:54:23 35° ENE 20:58:57 10° N visible
24 Aug 4.8 22:31:39 21° SW 22:33:24 25° W 22:37:35 10° NW visible
25 Aug 4.7 20:14:59 10° E 20:18:03 16° ENE 20:21:07 10° NNE visible
25 Aug 3.4 21:54:39 36° SSW 21:56:33 58° W 22:01:34 10° NNW visible
26 Aug 3.0 21:17:38 32° SE 21:19:54 62° ENE 21:24:55 10° N visible
26 Aug 5.4 22:57:51 13° WSW 22:59:18 14° W 23:01:53 10° WNW visible
27 Aug 4.0 20:40:38 17° ESE 20:43:26 28° ENE 20:47:42 10° N visible
27 Aug 4.4 22:20:52 27° SW 22:22:19 32° W 22:26:51 10° NNW visible
28 Aug 4.9 20:04:58 10° E 20:07:11 13° ENE 20:09:24 10° NE visible
28 Aug 3.1 21:43:51 43° S 21:45:32 75° WSW 21:50:38 10° NNW visible
29 Aug 3.3 21:06:51 30° SE 21:08:56 48° ENE 21:13:49 10° N visible
29 Aug 5.2 22:47:04 17° WSW 22:48:10 18° W 22:51:36 10° NW visible
30 Aug 4.3 20:29:51 15° ESE 20:32:32 22° ENE 20:36:23 10° NNE visible
30 Aug 4.0 22:10:04 35° SW 22:11:15 41° W 22:16:03 10° NNW visible
31 Aug 2.9 21:33:04 48° SSE 21:34:31 86° ENE 21:39:37 10° NNW visible
01 Sep 3.6 20:56:05 28° ESE 20:57:59 38° ENE 21:02:39 10° N visible
01 Sep 4.9 22:36:18 22° WSW 22:37:04 23° W 22:41:04 10° NW visible
